Flag for Greenland Weather past 2 weeks in Qaanaaq, Greenland

Now
12 °F

Overcast.


Feels Like: 3 °F
Forecast: 7 / 14 °F
Wind: 6 mph from Southeast

Location: Thule A. B.


UV Index: 0 (Low)

Visibility: N/A


Pressure: 29.98 "Hg

Humidity: 73%

Dew point: 5 °F

Location of QaanaaqLocation

Historic Weather in Qaanaaq

°F

Qaanaaq temperature yesterday

Maximum temperature yesterday: 12 °F (at 2:58 PM)
Minimum temperature yesterday: -4 °F (at 6:58 AM)
Average temperature yesterday: 6 °F

Past Weeks' High & Low Weather Summary

 TemperatureHumidityPressure
High21 °F (Apr 17, 3:58 PM)92% (Apr 14, 3:58 AM)30.14 "Hg (Apr 14, 3:58 AM)
Low-15 °F (Apr 7, 2:58 AM)32% (Apr 17, 4:58 PM)28.92 "Hg (Apr 17, 3:58 PM)
Average3 °F64%29.69 "Hg
* Reported Apr 5 1:58 PM — Apr 20 1:58 PM, Qaanaaq, Weather by CustomWeather, © 2014

Note: Actual official high and low records may vary slightly from our data, if they occured in-between our weather recording intervals... More about our weather records

Advertising

Historic Weather Conditions — Data for Previous 24 hours

 ConditionsComfort  
Time TempWeatherWind HumidityBarometerVisibility
1:58 PM
Apr 20
10 °FMore clouds than sun.2 mph79%29.97 "HgN/A
12:58 PM9 °FOvercast.8 mph78%29.98 "HgN/A
12:01 PM7 °FBroken clouds.7 mph72%30.01 "HgN/A
11:58 AM7 °FBroken clouds.7 mph72%29.98 "HgN/A
10:58 AM9 °FSunny.5 mph72%29.97 "HgN/A
10:03 AM10 °FPartly sunny.2 mph72%29.99 "HgN/A
9:58 AM10 °FMostly cloudy.No wind72%29.96 "HgN/A
8:58 AM10 °FOvercast.10 mph72%29.95 "HgN/A
7:58 AM10 °FOvercast.10 mph72%29.93 "HgN/A
6:58 AM10 °FMostly cloudy.13 mph72%29.92 "HgN/A
5:58 AM10 °FOvercast.12 mph79%29.90 "HgN/A
5:01 AM12 °FMostly cloudy.No wind85%29.92 "Hg6 mi
4:03 AM10 °FMostly cloudy.5 mph85%29.91 "HgN/A
2:58 AM9 °FMostly cloudy.10 mph85%29.86 "HgN/A
2:01 AM7 °FCloudy.10 mph85%29.88 "HgN/A
1:58 AM7 °FCloudy.10 mph85%29.85 "HgN/A
12:58 AM9 °FMostly cloudy.9 mph85%29.83 "HgN/A
11:59 PM
Apr 19
10 °FIce fog.9 mph85%29.85 "Hg4 mi
10:58 PM9 °FIce fog.8 mph92%29.81 "Hg2 mi
9:58 PM12 °FIce fog.8 mph85%29.80 "Hg2 mi
9:02 PM12 °FLight snow. Ice fog.9 mph85%29.82 "Hg1 mi
8:03 PM12 °FLight snow. Ice fog.9 mph85%29.81 "Hg2 mi
6:58 PM12 °FIce fog.8 mph85%29.77 "Hg3 mi
5:58 PM12 °FLow clouds.8 mph79%29.76 "Hg6 mi
4:58 PM12 °FMostly cloudy.8 mph73%29.76 "Hg5 mi
3:58 PM12 °FLow clouds.6 mph67%29.75 "Hg6 mi
Weather by CustomWeather, © 2014

See weather overview